Location: Aldenham
(51.6667°N, 0.3500°W)
Time: 01:40:00
(UTC+00:00)

ISS - Visible Passes

Search period start: 22 January 2026 00:00
Search period end: 01 February 2026 00:00
Orbit: 413 x 423 km, 51.6° (Epoch: 21 January)

Date Brightness Start Highest point End Pass type
(mag) Time Alt. Az. Time Alt. Az. Time Alt. Az.
22 Jan -3.9 18:28:25 10° W 18:31:46 85° S 18:32:19 60° ESE visible
23 Jan -3.8 17:40:25 10° W 17:43:46 89° N 17:46:22 16° E visible
23 Jan -2.0 19:17:13 10° W 19:19:18 32° WSW 19:19:18 32° WSW visible
24 Jan -3.4 18:29:09 10° W 18:32:28 60° SSW 18:33:23 41° SE visible
25 Jan -3.6 17:41:04 10° W 17:44:25 74° SSW 17:47:30 12° ESE visible
25 Jan -1.7 19:18:02 10° W 19:20:26 25° SW 19:20:26 25° SW visible
26 Jan -2.4 18:29:47 10° W 18:32:53 35° SSW 18:34:38 20° SSE visible
27 Jan -2.8 17:41:34 10° W 17:44:49 47° SSW 17:48:02 10° SE visible
27 Jan -0.9 19:19:21 10° WSW 19:20:59 13° SW 19:21:54 12° SSW visible
28 Jan -1.2 18:30:33 10° W 18:32:59 19° SW 18:35:25 10° S visible
29 Jan -1.6 17:42:03 10° W 17:44:55 26° SSW 17:47:46 10° SSE visible
31 Jan -0.6 17:42:58 10° WSW 17:44:42 14° SW 17:46:25 10° S visible
